Location: Brahman Valley
(40.6513°N, 111.8855°W)
Time: 00:52:21
(UTC+00:00)

PCSat - Visible Passes

Search period start: 24 June 2021 00:00
Search period end: 04 July 2021 00:00
Orbit: 785 x 794 km, 67.1° (Epoch: 23 June)

Date Brightness Start Highest point End Pass type
(mag) Time Alt. Az. Time Alt. Az. Time Alt. Az.
24 Jun 10.1 07:36:29 44° ESE 07:36:29 44° ESE 07:41:21 10° NE visible
24 Jun 11.0 09:17:09 19° W 09:19:45 28° NW 09:24:24 10° N visible
25 Jun 10.7 07:06:00 31° E 07:06:00 31° E 07:10:03 10° NE visible
25 Jun 10.6 08:46:40 28° W 08:48:33 36° NW 08:53:34 10° NNE visible
26 Jun 11.1 06:35:28 22° E 06:35:28 22° E 06:38:35 10° NE visible
26 Jun 10.2 08:16:09 41° W 08:17:24 49° NW 08:22:41 10° NNE visible
27 Jun 11.5 06:04:53 15° E 06:04:53 15° E 06:06:49 10° ENE visible
27 Jun 9.7 07:45:34 59° WSW 07:46:19 67° WNW 07:51:44 10° NNE visible
27 Jun 12.0 09:28:24 10° WNW 09:30:45 13° NW 09:33:06 10° NNW visible
28 Jun 9.4 07:14:56 80° SSW 07:15:16 89° ESE 07:20:43 10° NNE visible
28 Jun 11.9 08:56:03 10° W 08:59:24 16° NW 09:02:46 10° N visible
29 Jun 9.5 06:44:14 65° ESE 06:44:15 65° ESE 06:49:38 10° NE visible
29 Jun 11.6 08:24:53 13° W 08:28:06 21° NW 08:32:10 10° N visible
30 Jun 9.9 06:13:27 46° ESE 06:13:27 46° ESE 06:18:27 10° NE visible
30 Jun 11.3 07:54:07 18° W 07:56:51 27° NW 08:01:27 10° N visible
01 Jul 10.3 05:42:36 33° ESE 05:42:36 33° ESE 05:47:10 10° NE visible
01 Jul 10.8 07:23:15 24° W 07:25:39 35° NW 07:30:39 10° NNE visible
02 Jul 10.7 05:11:38 24° ESE 05:11:38 24° ESE 05:15:43 10° NE visible
02 Jul 10.4 06:52:16 30° WSW 06:54:30 47° NW 06:59:46 10° NNE visible
03 Jul 11.1 04:40:31 17° ESE 04:40:37 17° ESE 04:44:00 10° ENE visible
03 Jul 9.8 06:21:09 35° SW 06:23:24 65° WNW 06:28:49 10° NNE visible
03 Jul 12.2 08:05:40 10° WNW 08:07:53 12° NW 08:10:06 10° NNW visible
